Location: Antichan
(42.9728°N, 0.6667°E)
Time: 18:36:50
(UTC+00:00)

Terra - Pass Details

Date: 15 August 2020
Orbit: 701 x 703 km, 98.2° (Epoch: 20 September)

Event Time Altitude Azimuth Distance (km) Brightness Sun altitude
Exits shadow 20:28:50 13° 79° (ENE) 1,980 3.8 -15.3°
Maximum altitude 20:30:09 14° 60° (ENE) 1,898 3.8 -15.5°
Drops below altitude 10° 20:32:38 10° 29° (NNE) 2,179 4.5 -15.9°
Sets 20:35:52 0° 5° (N) 3,102 5.6 -16.4°
